Cam Ranh Airport
VVCR : now visible

Airfield :











YOU CAN JOIN US ON...

 
LOGIN :

Register | Disclaimer

   EN    FR    IT 

 









Legend :    VFR   Marginal VFR   IFR   Intensive IFR   Very Intensive IFR
Visi :
Ceiling :
>= 8 km
>= 3000ft
5 to 8 km
1000 to 3000 ft
1500m to 5 km
500 to 1000 ft
800 to 1500m
200 to 500 ft
< 800m
< 200 ft
Symbols :   Thunderstorms  Fog  Heavy snow  Heavy precipitations  Wind > 20 kt






- Airport Elevation : 40 ft
- IATA code : CXR


VVCR - Cam Ranh

CURRENT METAR :
  • 190430Z 23017KT 9999 FEW015 BKN060 33/24 Q1009 NOSIG

EXPIRED METARs :
  • 190400Z 22015KT 9999 FEW015 BKN060 33/25 Q1010 NOSIG
  • 190330Z 22016KT 9999 FEW015 BKN060 32/25 Q1010 NOSIG
  • 190300Z 22014KT 9999 FEW015 BKN060 30/26 Q1010 NOSIG
  • 190230Z 22013KT 9999 -RA FEW015 BKN060 29/26 Q1010 NOSIG

TAF TAF VVCR
Valid from the 19 at 00:00 until the 20 at 00:00 UTC


182300Z 1900/1924 24012KT 9999 FEW015 SCT050
VVTS FIR / Asia



MET'MAP, your aeronautical weather chart ! - Copyright ORBIFLY December 2007 - Disclaimer

ORBIFLY MET'MAP TEAM :

Programming & Development : Alexandra Zaïnal
Concept & original design : Baudouin d'Aumeries
Assistance for programming : Marc-Olivier Méhu
Technical & hardware support : Manuel Goepfert

Contact : metmap@orbifly.com




SOURCES & CREDITS :

   NOAA       Earth
Advisory